[[{"header":{"parameterUnit":"m.s-1","parameterCategory":1,"la1":30.2991,"la2":30.254,"lo1":-89.0895,"lo2":-89.0444,"dy":0.0017,"dx":0.0017,"nx":28,"ny":28,"refTime":"2024-03-11T09:00:00:Z","depth":0,"parameterNumber":2,"parameterNumberName":"U-component_of_WINDS"},"data":[0,0,0,0,0,0,0,0,0,0,0,0,0,0,0,0,0,0,0,0,0,0,0,0,0,0,0,0,0,0,0,0,0,0,0,0,0,0,0,0,0,0,0,0,0,0,0,0,0,0,0,0,0,0,0,0,0,0,-0.8613,-0.8613,0,-0.8593,-0.8593,-0.8593,-0.8566,-0.8566,-0.8565,-0.8565,-0.8546,-0.8545,-0.8545,0,0,0,0,0,0,0,0,0,0,0,0,0,-0.8628,-0.8628,-0.8613,-0.8612,-0.8612,-0.8593,-0.8593,-0.8593,-0.8566,-0.8566,-0.8565,-0.8565,-0.8546,-0.8545,-0.8545,0,0,0,0,0,0,0,0,0,0,0,0,0,-0.8617,-0.8628,-0.8613,-0.8597,-0.8595,-0.8593,-0.8593,-0.8593,-0.8566,-0.8566,-0.8565,-0.8564,-0.8546,-0.8545,-0.8545,-0.8558,0,0,-0.8545,-0.8545,0,0,0,0,0,0,0,0,-0.8617,-0.8616,-0.8599,-0.8598,-0.8596,-0.8581,-0.8591,-0.8581,-0.8567,-0.8577,-0.8565,-0.8564,-0.8558,-0.8557,-0.8555,-0.8557,-0.8556,-0.8545,-0.8545,-0.8545,-0.8545,0,0,0,0,0,0,0,-0.8618,-0.8617,-0.8605,-0.8599,-0.8597,-0.8591,-0.8589,-0.8589,-0.8572,-0.8576,-0.8574,-0.8572,-0.8557,-0.8555,-0.8554,-0.8556,-0.8545,-0.8545,-0.8545,-0.8545,-0.8568,-0.8569,0,0,0,0,0,0,-0.8621,-0.8618,-0.8606,-0.8604,-0.8605,-0.8591,-0.8589,-0.8587,-0.8572,-0.8569,-0.8573,-0.8571,-0.8555,-0.8554,-0.8553,-0.8567,-0.8545,-0.8545,-0.8544,-0.8567,-0.8568,-0.8569,0,0,0,0,0,0,-0.8622,-0.862,-0.8606,-0.861,-0.8608,-0.8592,-0.859,-0.8587,-0.8585,-0.8569,-0.8566,-0.8574,-0.8555,-0.8553,-0.8557,-0.8566,-0.8544,-0.8544,-0.8567,-0.8568,-0.8569,-0.8595,0,0,0,0,0,0,-0.8622,-0.8621,-0.8625,-0.8611,-0.8608,-0.861,-0.8591,-0.8587,-0.8584,-0.8582,-0.8569,-0.8566,-0.8554,-0.8557,-0.8557,-0.8566,-0.8544,-0.8566,-0.8567,-0.8568,-0.8593,-0.8597,-0.86,0,0,0,0,0,-0.8623,-0.8633,-0.8625,-0.8624,-0.8613,-0.8611,-0.8609,-0.8595,-0.8585,-0.859,-0.858,-0.8567,-0.8565,-0.8558,-0.8557,-0.8566,-0.8565,-0.8567,-0.8568,-0.8592,-0.8596,-0.86,0,0,0,0,0,0,-0.8649,-0.8631,-0.8622,-0.8628,-0.8621,-0.8606,-0.8611,-0.86,-0.8596,-0.8594,-0.8576,-0.8574,-0.858,-0.8573,-0.8565,-0.8578,-0.8563,-0.8565,-0.8582,-0.8586,-0.8589,-0.859,-0.8544,0,0,0,0,0,-0.8655,-0.8655,-0.8639,-0.8646,-0.8643,-0.8628,-0.8626,-0.8616,-0.8608,-0.8605,-0.8596,-0.8589,-0.8587,-0.8586,-0.8583,-0.8593,-0.859,-0.8598,-0.8602,-0.8605,-0.8606,-0.8611,-0.8615,-0.8574,-0.8574,-0.8574,0,0,-0.8668,-0.8659,-0.8659,-0.8651,-0.8644,-0.8645,-0.8626,-0.8626,-0.8627,-0.8605,-0.8608,-0.8601,-0.8592,-0.8599,-0.8602,-0.8594,-0.8617,-0.8607,-0.8609,-0.8609,-0.8613,-0.8617,-0.8621,-0.8575,-0.8575,-0.8575,0,0,-0.8692,-0.8685,-0.869,-0.8684,-0.8674,-0.8664,-0.8666,-0.8653,-0.8647,-0.865,-0.8634,-0.8634,-0.8631,-0.8626,-0.8623,-0.8646,-0.8634,-0.8646,-0.8663,-0.8669,-0.8672,-0.8675,-0.8683,-0.8687,-0.8648,-0.8648,-0.8648,0,-0.871,-0.8709,-0.8694,-0.8696,-0.8693,-0.8674,-0.868,-0.8675,-0.8665,-0.8663,-0.8655,-0.8651,-0.8644,-0.865,-0.8655,-0.8653,-0.8655,-0.8647,-0.8673,-0.8675,-0.8678,-0.8686,-0.8689,-0.8649,-0.8649,-0.8649,-0.8649,0,-0.8732,-0.8732,-0.8737,-0.8728,-0.8726,-0.873,-0.8715,-0.8715,-0.8705,-0.8696,-0.87,-0.8691,-0.8686,-0.8687,-0.8677,-0.8691,-0.8687,-0.8676,-0.8661,-0.8683,-0.8691,-0.8694,-0.8651,-0.8651,-0.865,-0.865,0,0,-0.8771,-0.8754,-0.8757,-0.8753,-0.8741,-0.8741,-0.8744,-0.874,-0.874,-0.8734,-0.8737,-0.8735,-0.8725,-0.8722,-0.8711,-0.8716,-0.8736,-0.8704,-0.8704,-0.8711,-0.8751,-0.876,-0.8763,-0.8728,-0.8728,-0.8729,-0.8752,0,-0.8794,-0.8798,-0.8784,-0.8792,-0.8792,-0.8775,-0.8778,-0.8771,-0.8763,-0.8763,-0.8754,-0.8753,-0.874,-0.8738,-0.8742,-0.8733,-0.8744,-0.8731,-0.8731,-0.8731,-0.8733,-0.8767,-0.8776,-0.8798,-0.8755,-0.8755,-0.8756,0,-0.882,-0.8815,-0.8823,-0.8812,-0.8812,-0.8814,-0.881,-0.8809,-0.8802,-0.8796,-0.8792,-0.878,-0.8783,-0.8769,-0.8774,-0.8765,-0.8764,-0.876,-0.8761,-0.876,-0.8745,-0.8768,-0.8805,-0.8809,-0.876,-0.876,-0.8759,0,-0.8848,-0.8844,-0.8849,-0.8846,-0.8833,-0.8835,-0.883,-0.8822,-0.882,-0.8816,-0.8815,-0.8812,-0.881,-0.8808,-0.8795,-0.8786,-0.8801,-0.8786,-0.8797,-0.8797,-0.8801,-0.8801,-0.8838,-0.88,-0.88,-0.88,-0.88,0,-0.8875,-0.888,-0.8862,-0.8864,-0.887,-0.8855,-0.8862,-0.8855,-0.8848,-0.8849,-0.8834,-0.8836,-0.8819,-0.8819,-0.881,-0.8815,-0.8814,-0.881,-0.8807,-0.8811,-0.8812,-0.8811,-0.8809,-0.8801,-0.8801,-0.88,-0.88,0,-0.8908,-0.8895,-0.8899,-0.8886,-0.8883,-0.8888,-0.8877,-0.888,-0.8871,-0.8873,-0.8873,-0.8859,-0.8859,-0.8846,-0.8843,-0.8837,-0.8846,-0.884,-0.8849,-0.8847,-0.8858,-0.8858,-0.8897,-0.8901,-0.886,-0.886,-0.8861,0,-0.8925,-0.8929,-0.8917,-0.8917,-0.8912,-0.8912,-0.891,-0.8896,-0.8895,-0.8887,-0.8891,-0.8889,-0.8887,-0.8887,-0.8877,-0.8875,-0.8869,-0.8883,-0.8869,-0.8873,-0.887,-0.887,-0.887,-0.8886,-0.8887,-0.8887,-0.8887,0,-0.8958,-0.8952,-0.895,-0.8946,-0.8945,-0.8941,-0.8937,-0.8937,-0.8922,-0.8921,-0.8921,-0.8919,-0.8916,-0.8915,-0.891,-0.8905,-0.8894,-0.8892,-0.8894,-0.8899,-0.8903,-0.8901,-0.8857,-0.8891,-0.8891,-0.889,-0.889,-0.889,-0.8984,-0.8987,-0.8979,-0.8978,-0.8973,-0.8969,-0.8971,-0.8962,-0.8961,-0.8958,-0.8949,-0.895,-0.8943,-0.8937,-0.8933,-0.8933,-0.8926,-0.893,-0.8931,-0.8932,-0.8934,-0.8903,-0.8933,-0.8932,-0.8932,-0.8932,-0.8932,0,-0.9017,-0.9011,-0.901,-0.9004,-0.9003,-0.8992,-0.8987,-0.8987,-0.8988,-0.8982,-0.898,-0.898,-0.8979,-0.8969,-0.8967,-0.8969,-0.8964,-0.8969,-0.8969,-0.8968,-0.894,-0.8939,-0.8973,-0.8973,-0.8973,-0.8973,-0.8973,-0.8973,-0.9034,-0.9038,-0.9031,-0.9034,-0.9028,-0.9028,-0.9026,-0.9023,-0.9018,-0.9018,-0.9017,-0.9011,-0.9004,-0.9001,-0.9,-0.8997,-0.8997,-0.9004,-0.8999,-0.8974,-0.897,-0.8966,-0.8964,-0.9004,-0.9004,-0.9027,-0.9027,-0.9027]},{"header":{"parameterUnit":"m.s-1","parameterCategory":1,"la1":30.2991,"la2":30.254,"lo1":-89.0895,"lo2":-89.0444,"dy":0.0017,"dx":0.0017,"nx":28,"ny":28,"refTime":"2024-03-11T09:00:00:Z","depth":0,"parameterNumber":3,"parameterNumberName":"V-component_of_WINDS"},"data":[0,0,0,0,0,0,0,0,0,0,0,0,0,0,0,0,0,0,0,0,0,0,0,0,0,0,0,0,0,0,0,0,0,0,0,0,0,0,0,0,0,0,0,0,0,0,0,0,0,0,0,0,0,0,0,0,0,0,2.9985,2.9985,0,3.0009,3.0009,3.0009,3.0,2.9999,2.9999,2.9998,3.0021,3.0022,3.0023,0,0,0,0,0,0,0,0,0,0,0,0,0,2.9929,2.993,2.9985,2.9985,2.9986,3.0009,3.0009,3.0009,3.0,2.9999,2.9998,2.9998,3.0021,3.0022,3.0024,0,0,0,0,0,0,0,0,0,0,0,0,0,2.9953,2.993,2.9985,2.9984,2.9984,3.0009,3.0009,3.001,3.0,2.9999,2.9998,2.9997,3.002,3.0022,3.0024,3.0051,0,0,3.0029,3.003,0,0,0,0,0,0,0,0,2.9952,2.9955,2.9983,2.9984,2.9984,3.0,2.9998,3.0023,3.0,2.9994,2.9998,2.9997,3.0015,3.0017,3.0023,3.0052,3.0053,3.0029,3.003,3.0031,3.0031,0,0,0,0,0,0,0,2.995,2.9954,2.9994,2.9984,2.9984,2.9981,2.9984,3.0003,3.0009,2.9994,2.9994,2.9997,3.0015,3.0022,3.0024,3.0054,3.0029,3.0031,3.0032,3.0032,3.0105,3.0106,0,0,0,0,0,0,2.9949,2.9953,2.9994,2.9995,2.9965,2.9983,2.9986,2.9996,3.0008,3.001,2.9997,2.9996,3.0019,3.0022,3.0025,3.0057,3.0031,3.0033,3.0033,3.0104,3.0105,3.0106,0,0,0,0,0,0,2.9947,2.9952,2.9993,2.9974,2.9979,2.9985,2.9996,2.9997,3.0004,3.0011,3.0012,3.0003,3.0019,3.0022,3.0044,3.0057,3.0033,3.0035,3.0103,3.0105,3.0106,3.0122,0,0,0,0,0,0,2.9946,2.9952,2.9963,2.9974,2.998,3.0013,2.9997,2.9998,3.0007,3.0005,3.0017,3.0018,3.0018,3.0042,3.0046,3.0059,3.0036,3.0102,3.0104,3.0105,3.012,3.0124,3.0127,0,0,0,0,0,2.9944,2.9966,2.9964,2.9969,2.9994,3.0014,3.0017,3.0017,3.0008,3.0019,3.0023,3.0017,3.0055,3.0044,3.0049,3.0063,3.0101,3.0103,3.0105,3.0119,3.0123,3.0127,0,0,0,0,0,0,2.9957,2.9968,2.9965,2.9992,3.0002,3.0012,3.0026,3.0022,3.0034,3.0032,3.0032,3.0035,3.0057,3.0062,3.005,3.009,3.0077,3.008,3.0086,3.009,3.0093,3.0091,3.0038,0,0,0,0,0,2.9963,2.9978,2.9987,3.001,3.0015,3.002,3.0028,3.0028,3.0038,3.0042,3.0048,3.0058,3.0072,3.0081,3.0094,3.0121,3.0123,3.0133,3.0136,3.0138,3.0141,3.0154,3.0159,3.0113,3.0113,3.0113,0,0,2.9975,2.9983,2.9993,3.0013,3.0021,3.0036,3.0023,3.0041,3.0052,3.0044,3.0066,3.0071,3.0081,3.0106,3.0117,3.011,3.0154,3.0141,3.0143,3.0144,3.0157,3.0161,3.0165,3.0114,3.0114,3.0114,0,0,3.0006,3.0014,3.0033,3.0041,3.0053,3.0056,3.006,3.0071,3.0074,3.0095,3.009,3.0103,3.0127,3.0135,3.0142,3.0174,3.0169,3.0179,3.0195,3.0208,3.0212,3.0215,3.0226,3.023,3.0181,3.0181,3.0181,0,3.002,3.0043,3.0044,3.0061,3.007,3.0064,3.0083,3.0091,3.0106,3.0112,3.0105,3.0135,3.0141,3.0167,3.0175,3.0181,3.0186,3.0177,3.0211,3.0215,3.0217,3.0228,3.0232,3.0182,3.0182,3.0182,3.0182,0,3.0059,3.0076,3.009,3.0105,3.0115,3.0134,3.0136,3.0146,3.0145,3.0148,3.0169,3.0177,3.0191,3.0197,3.0196,3.0223,3.0218,3.0211,3.0198,3.0223,3.0232,3.0236,3.0184,3.0183,3.0183,3.0183,0,0,3.0099,3.0114,3.0119,3.0125,3.0138,3.015,3.0168,3.0182,3.019,3.0201,3.0215,3.0235,3.0229,3.0237,3.0236,3.0248,3.0272,3.0239,3.0239,3.0244,3.03,3.0305,3.031,3.0269,3.0269,3.027,3.0299,0,3.013,3.0162,3.0162,3.0191,3.0205,3.02,3.0215,3.0223,3.0226,3.0239,3.0242,3.0256,3.0247,3.0252,3.0263,3.0266,3.0283,3.0264,3.0281,3.0282,3.0278,3.0315,3.032,3.0348,3.0303,3.0304,3.0304,0,3.0171,3.0183,3.0213,3.0222,3.0228,3.0242,3.0254,3.0267,3.0276,3.0277,3.0286,3.0283,3.03,3.0287,3.031,3.0297,3.0304,3.0307,3.0308,3.0309,3.0294,3.0317,3.0357,3.036,3.031,3.031,3.0309,0,3.0196,3.0219,3.024,3.0246,3.0257,3.0267,3.0272,3.0281,3.0289,3.03,3.0305,3.0318,3.0324,3.0334,3.0334,3.0325,3.0357,3.0344,3.0358,3.0358,3.0365,3.0364,3.0406,3.037,3.037,3.037,3.037,0,3.023,3.0249,3.0251,3.0264,3.0284,3.0284,3.0304,3.0308,3.0316,3.0328,3.0324,3.0336,3.0336,3.0348,3.0349,3.0367,3.037,3.0371,3.0371,3.0372,3.0371,3.0376,3.0374,3.0371,3.0371,3.0371,3.0371,0,3.0262,3.0264,3.0286,3.0295,3.0298,3.0312,3.0319,3.0331,3.0334,3.035,3.0354,3.0357,3.0371,3.0373,3.0389,3.0389,3.0411,3.0409,3.0408,3.0407,3.0421,3.0419,3.0466,3.0472,3.0433,3.0434,3.0434,0,3.0283,3.0297,3.0307,3.0316,3.0321,3.0335,3.0343,3.0344,3.0352,3.0363,3.0374,3.0387,3.0398,3.042,3.0424,3.0436,3.0434,3.0449,3.0436,3.0435,3.0433,3.0432,3.0433,3.0452,3.0452,3.0453,3.0453,0,3.0321,3.0321,3.0334,3.0346,3.0356,3.0366,3.0376,3.0383,3.0384,3.0394,3.0408,3.0416,3.0432,3.0446,3.0457,3.0462,3.0457,3.0457,3.0461,3.0461,3.046,3.046,3.0415,3.0456,3.0456,3.0456,3.0455,3.0455,3.0347,3.0359,3.0368,3.0382,3.0389,3.0397,3.0408,3.0412,3.0424,3.0438,3.0437,3.0452,3.046,3.0475,3.0481,3.0492,3.0487,3.0493,3.0494,3.0495,3.0496,3.0458,3.0495,3.0494,3.0494,3.0494,3.0494,0,3.0384,3.0389,3.0402,3.0415,3.0426,3.0421,3.0431,3.0439,3.0453,3.0461,3.0472,3.0488,3.05,3.0505,3.0517,3.0525,3.0523,3.0528,3.0527,3.0528,3.0501,3.0496,3.0529,3.0529,3.0529,3.0529,3.0529,3.0529,3.0405,3.0424,3.0425,3.0448,3.0453,3.0468,3.0474,3.0481,3.0488,3.0506,3.0516,3.0519,3.0525,3.0538,3.0548,3.0549,3.0554,3.0559,3.0559,3.0534,3.053,3.0527,3.0522,3.056,3.056,3.0586,3.0586,3.0586]}]]